QZS-2 (MICHIBIKI-2)

Last updated on June 26, 2019, 3:46 a.m. UTC

1 42738U 17028A   19176.62491653 -.00000216  00000-0  00000+0 0  9991
2 42738  43.5871 279.4116 0757446 269.1336  88.6881  1.00288324  7584
UTC
Height (km)
Latitude
Longitude
Inclination
Orbital Period
UTC large
Height (km)
Speed (km/s)
/
Latitude / Longitude
Inclination (degrees)
Orbital Period (minutes)
Azimuth
Elevation
Range (km)
Doppler Factor
iOS Compass Heading
iOS Angle

Next 30 passes for location: Hong Kong

Rise time Rise Azimuth (degrees) Set time Set Azimuth (degrees) Duration Max altitude (degrees)

No matching passes for this satellites